Погода в Сукко

Россия / Краснодарский край     44°47′28″N   37°24′08″E
темп.,
°C
ветер,
м/с
пор.,
м/с
влажн.,
%
обл.,
%
осадки,
мм/ч
давл.,
гПа
погр.,
м
18 апреля, вс
вс1800:00+10в2266100 0.0 101919
03:00+10всв2269100 0.0 101753
06:00+10св2285100 0.2 101733
09:00+10ссв2287100 0.6 1017104
12:00+11с1193100 3.3 1017116
15:00+15св227818 3.9 1016291
18:00+13з2285100 0.0 1016139
21:00+10ссз0194100 0.0 101710
19 апреля, пн
пн1900:00+11ююв2394100 0.0 101780
03:00+11юв369899 0.1 1016275
06:00+11ю259996 0.4 1015200
09:00+12ююв3598100 0.6 1016251
12:00+12ююв3496100 0.1 1015294
15:00+11ююв2498100 1.3 1015197
18:00+12вюв1298100 0.3 101475
21:00+12вюв2295100 0.3 101230
20 апреля, вт
вт2000:00+13св3396100 2.6 100854
03:00+13св4494100 2.9 100467
06:00+12всв229127 0.0 100316
09:00+12з5109799 0.3 1004371
12:00+13зюз6108693 0.0 1006523
15:00+11юз7128899 0.1 1008644
18:00+10ююз101584100 0.1 10091119
21:00+9ююз111589100 0.4 10121208
21 апреля, ср
ср2100:00+9юз10128842 0.4 1014734
03:00+9зюз610902 0.5 1016411
06:00+8юз359741 0.0 1018169
09:00+11ююз478621 0.0 1019583
12:00+12ююз568013 0.1 1020711
15:00+12юз33746 0.0 1020561
18:00+11ю33772 0.0 1021326
21:00+9ююв118969 0.0 102210
22 апреля, чт
чт2200:00+8ю018416 0.0 102210
03:00+8ссз228368 0.0 102219
06:00+8с2283100 0.0 102335
09:00+13ссв236689 0.0 1023385
12:00+15з21595 0.4 10231011
15:00+14зсз44670 0.9 1024637
18:00+13зсз34700 0.0 1024251
21:00+10с33810 0.0 102536